Tracking 31027 objects as of 19-Jul-2025
HD Live streaming from Space Station
objects crossing your sky now

LINUSS2

Track LINUSS2 now!


NORAD ID: 55247
Int'l Code: 2022-144H
Perigee: 36,114.3 km
Apogee: 36,165.7 km
Inclination: 4.6 °
Period: 1,453.8 minutes
Semi major axis: 42510 km
RCS: Unknown
Launch date: November 1, 2022
Source: United States (US)
Launch site: AIR FORCE EASTERN TEST RANGE (AFETR)
Your satellite tracking list
CZ-3A R/B
Track 1 satellite(s)




NASA's NSSDC Master Catalog

Two Line Element Set (TLE):
1 55247U 22144H   25199.10822015  .00000027  00000-0  00000-0 0  9990
2 55247   4.5561  66.3912 0006043 318.4975 208.2134  0.99049317  8407
Source of the keplerian elements: AFSPC